Location: B�rgermoos
(47.6500°N, 9.0667°E)
Time: 16:16:08
(UTC+00:00)

Vanguard 1 - Pass Details

Date: 04 August 2021
Orbit: 652 x 3831 km, 34.3° (Epoch: 17 September)

Event Time Altitude Azimuth Distance (km) Brightness Sun altitude
Rises 11:53:43 0° 249° (WSW) 3,220 12.9 59.1°
Reaches altitude 10° 11:56:10 10° 235° (SW) 2,491 12.6 59.0°
Maximum altitude 12:00:52 25° 180° (S) 2,057 12.8 58.8°
Drops below altitude 10° 12:07:48 10° 130° (SE) 3,786 13.4 58.5°
Sets 12:12:36 0° 119° (ESE) 5,357 13.9 58.2°
